Weather History for Orange, MA

Change the Weather History Date:

Tuesday, March 26, 2013

  Actual Average Record
Temperature  
Mean Temperature 36 °F -  
Max Temperature 46 °F 44 °F 69 °F (2004)
Min Temperature 26 °F 25 °F 12 °F (2001)
Degree Days  
Heating Degree Days 29    
Moisture  
Dew Point 24 °F    
Average Humidity 63    
Maximum Humidity 87    
Minimum Humidity 36    
Precipitation  
Precipitation 0.00 in - - ()
Sea Level Pressure  
Sea Level Pressure 29.69 in    
Wind  
Wind Speed 5 mph (NW)    
Max Wind Speed 17 mph    
Max Gust Speed 22 mph    
Visibility 10 miles    
Events Snow    
Averages and records for this station are not official NWS values.
T = Trace of Precipitation, MM = Missing Value Source: NWS Daily Summary

Daily Weather History Graph

Daily Weather History Graph

Search for Another Location

Airport:

Trip Planner

Search our weather history database for the weather conditions in past years. The results will help you decide how hot, cold, wet, or windy it might be!

Date:

Astronomy

Mar. 26, 2013 Rise Set
Actual Time 6:41 AM EDT 7:08 PM EDT
Civil Twilight 6:13 AM EDT 7:36 PM EDT
Nautical Twilight 5:40 AM EDT 8:10 PM EDT
Astronomical Twilight 5:05 AM EDT 8:44 PM EDT
Moon 6:42 PM EDT (3/26) 5:56 AM EDT (3/26)
Length of Visible Light 13h 23m
Length of Day
12h 27m
Waxing Gibbous, 99% of the Moon is Illuminated
Mar 26
Waxing Gibbous
Mar 27
Full
Apr 3
Last Quarter
Apr 10
New
Apr 18
First Quarter

Hourly Weather History & Observations

Time (EDT) Temp. Windchill Dew Point Humidity Pressure Visibility Wind Dir Wind Speed Gust Speed Precip Events Conditions
12:52 AM 36.0 °F 32.1 °F 26.1 °F 67% 29.58 in 10.0 mi North 4.6 mph - N/A   Overcast
1:52 AM 34.0 °F 31.0 °F 26.1 °F 73% 29.58 in 10.0 mi NW 3.5 mph - N/A   Overcast
2:52 AM 36.0 °F 30.3 °F 26.1 °F 67% 29.59 in 10.0 mi North 6.9 mph - N/A   Overcast
3:52 AM 34.0 °F 31.0 °F 26.1 °F 73% 29.59 in 10.0 mi NW 3.5 mph - N/A   Overcast
4:52 AM 34.0 °F 29.8 °F 26.1 °F 73% 29.61 in 10.0 mi NNW 4.6 mph - N/A   Overcast
5:52 AM 34.0 °F 29.8 °F 26.1 °F 73% 29.62 in 10.0 mi North 4.6 mph - N/A   Overcast
6:52 AM 34.0 °F 31.0 °F 26.1 °F 73% 29.65 in 9.0 mi NW 3.5 mph - 0.00 in Snow Light Snow
7:52 AM 34.0 °F 29.8 °F 28.0 °F 79% 29.67 in 10.0 mi NW 4.6 mph - 0.00 in   Overcast
8:52 AM 34.0 °F - 28.0 °F 79% 29.69 in 7.0 mi Calm Calm - N/A   Overcast
9:42 AM 33.8 °F 30.8 °F 30.2 °F 87% 29.68 in 10.0 mi WNW 3.5 mph - 0.00 in   Overcast
9:52 AM 35.1 °F - 30.0 °F 82% 29.70 in 10.0 mi Calm Calm - 0.00 in   Overcast
10:23 AM 35.6 °F 31.7 °F 28.4 °F 75% 29.68 in 10.0 mi West 4.6 mph - N/A   Overcast
10:52 AM 37.9 °F 35.5 °F 27.0 °F 65% 29.70 in 10.0 mi NW 3.5 mph - N/A   Overcast
11:17 AM 39.2 °F 34.2 °F 24.8 °F 56% 29.69 in 10.0 mi NNW 6.9 mph - N/A   Overcast
11:52 AM 39.9 °F 35.8 °F 25.0 °F 55% 29.71 in 10.0 mi West 5.8 mph - N/A   Overcast
12:52 PM 39.9 °F 32.9 °F 24.1 °F 53% 29.71 in 10.0 mi NNW 11.5 mph 19.6 mph N/A   Overcast
1:52 PM 43.0 °F 37.7 °F 23.0 °F 45% 29.72 in 10.0 mi WNW 9.2 mph - N/A   Mostly Cloudy
2:52 PM 44.1 °F 36.5 °F 21.9 °F 42% 29.70 in 10.0 mi NW 17.3 mph 21.9 mph N/A   Mostly Cloudy
3:52 PM 45.0 °F 39.3 °F 19.0 °F 36% 29.70 in 10.0 mi WNW 11.5 mph 16.1 mph N/A   Scattered Clouds
4:52 PM 44.1 °F 38.6 °F 19.9 °F 38% 29.72 in 10.0 mi WNW 10.4 mph - N/A   Mostly Cloudy
5:52 PM 44.1 °F 38.1 °F 19.0 °F 37% 29.74 in 10.0 mi NNW 11.5 mph - N/A   Scattered Clouds
6:52 PM 41.0 °F 33.9 °F 19.0 °F 41% 29.76 in 10.0 mi NW 12.7 mph - N/A   Clear
7:52 PM 37.0 °F 32.4 °F 19.0 °F 48% 29.78 in 10.0 mi WNW 5.8 mph - N/A   Clear
8:52 PM 33.1 °F - 19.0 °F 56% 29.80 in 10.0 mi Calm Calm - N/A   Clear
10:52 PM 27.0 °F - 21.0 °F 78% 29.81 in 10.0 mi Calm Calm - N/A   Clear
11:52 PM 26.1 °F - 21.9 °F 84% 29.82 in 10.0 mi Calm Calm - N/A   Clear